Welcome to the New NWS' Forecast!
Most changes are behind the scenes, but click here for differences you might notice.
Latest weather observations around

Seattle, Seattle-Tacoma International Airport (KSEA)

Using International System of Units (Switch to English Units)
Date/ Time (PDT) Wind (kph) Vis. (km) Weather Sky Cond. Temp (°C) Rel. Humidity Wind Chill (°C) Heat Index (°C) Pressure Precip. (cm)
Air Dwpt 6 hour Altimeter (hPa) Sea level (hPa) 1 hr 3 hr 6 hr
Max Min
Sep 18 15:53 WNW 13 16.09 Partly Cloudy FEW030 SCT250 19 8     47%     1018.6 1019.2      
Sep 18 14:53 N 15 16.09 Partly Cloudy FEW030 SCT250 19 7     47%     1019 1019.6      
Sep 18 13:53 WNW 15 16.09 Partly Cloudy FEW020 SCT250 18 9     56%     1019.7 1020.1      
Sep 18 12:53 Calm 16.09 Partly Cloudy FEW018 SCT250 16 9     62%     1020 1020.6      
Sep 18 11:53 Calm 16.09 Partly Cloudy SCT015 SCT250 15 8     64%     1020.3 1020.9      
Sep 18 11:41 N 9 16.09 Partly Cloudy SCT013 SCT250 15 8     64%     1020.3        
Sep 18 10:53   16.09 Mostly Cloudy BKN010 13 8     72%     1020.7 1021.1      
Sep 18 10:46 NNE 9 16.09 Mostly Cloudy BKN010 13 8     74%     1020.7        
Sep 18 09:24 N 11 16.09 Cloudy OVC009 12 8     77%     1020.3        
Sep 18 08:53 N 9 16.09 Mostly Cloudy BKN013 12 8     77%     1020.3 1021      
Sep 18 08:40 N 9 16.09 Mostly Cloudy BKN013 12 7     74%     1020.7        
Sep 18 07:53 Calm 16.09 Partly Cloudy SCT013 11 7     79%     1020.3 1021.1      
Sep 18 06:53 NNW 8 16.09 Mostly Clear FEW080 9 6     83% 8   1020.3 1020.9      
Sep 18 05:53 N 8 16.09 Mostly Clear FEW200 9 6     83% 8   1020 1020.5      
Sep 18 04:53 NE 11 16.09 Clear CLR 11 6     74%     1019.7 1020.2      
Sep 18 03:53 N 9 16.09 Clear CLR 9 6     77% 8   1019.7 1020.4      
Sep 18 02:53 N 11 16.09 Clear CLR 11 6     71%     1019.7 1020.1      
Sep 18 01:53 NNE 17 16.09 Clear CLR 11 6     71%     1019.7 1020.1      
Sep 18 00:53 NE 15 16.09 Clear CLR 12 6     69%     1019.7 1020.1      
Sep 17 23:53 NE 18 16.09 Clear CLR 12 6     64%     1019.7 1020.2      
Sep 17 22:53 N 13 16.09 Clear CLR 13 6     64%     1019.7 1020.3      
Sep 17 21:53 N 17 16.09 Clear CLR 13 6     62%     1019.7 1020.3      
Sep 17 20:53 N 15 16.09 Clear CLR 13 6     60%     1019.7 1020.2      
Sep 17 19:53 N 17 16.09 Mostly Clear FEW040 FEW250 14 6     55%     1019.3 1019.9      
Sep 17 18:53 N 17 16.09 Mostly Clear FEW040 FEW250 16 6     51%     1019.3 1019.8      
Sep 17 17:53 NW 11 16.09 Mostly Clear FEW040 FEW250 18 6     43%     1019 1019.6      
Sep 17 16:53 WNW 17 16.09 Partly Cloudy FEW040 SCT250 18 6     45%     1019.3 1019.7      
Sep 17 15:53 WNW 18 16.09 Partly Cloudy FEW040 SCT250 18 7     48%     1019.3 1019.8      
Sep 17 14:53 WNW 17 16.09 Partly Cloudy SCT039 SCT250 18 7     48%     1019.7 1020      
Sep 17 13:53 WNW 15 16.09 Partly Cloudy SCT035 SCT250 17 7     50%     1020 1020.5      
Sep 17 12:53 WNW 17 16.09 Partly Cloudy FEW017 SCT035 SCT250 17 8     54%     1020.3 1021      
Sep 17 11:53 N 15 16.09 Partly Cloudy FEW013 SCT032 SCT250 17 7     53%     1021 1021.3      
Sep 17 10:53 NNE 13 16.09 Mostly Cloudy FEW011 SCT030 BKN041 15 8     64%     1021 1021.7      
Sep 17 09:53 NNE 13 16.09 Mostly Cloudy FEW009 BKN035 14 9     74%     1021 1021.6      
Sep 17 09:32 NE 9 16.09 Mostly Cloudy FEW009 BKN032 13 9     77%     1021        
Sep 17 09:06 ENE 5 16.09 Mostly Cloudy FEW012 BKN030 13 9     80%     1021        
Sep 17 08:53 5 16.09 Mostly Cloudy FEW012 BKN026 13 9     80%     1021 1021.5      
Sep 17 07:53 WNW 5 16.09 Mostly Cloudy FEW014 BKN026 BKN250 12 10     86%     1020.7 1021.1      
Sep 17 07:23 Calm 16.09 Mostly Cloudy FEW009 SCT014 BKN026 12 9     86%     1020.3        
Sep 17 06:53 Calm 16.09 Mostly Cloudy FEW009 BKN014 12 9     86%     1020.3 1021      
Sep 17 06:36 Calm 16.09 Mostly Cloudy FEW009 BKN014 11 9     86%     1020.3        
Sep 17 05:53 N 8 16.09 Mostly Cloudy BKN015 11 9     89%     1020 1020.6      
Sep 17 05:34 Calm 16.09 Mostly Cloudy BKN015 11 9     89%     1020        
Sep 17 04:53 SSE 5 16.09 Partly Cloudy SCT015 11 9     89%     1020 1020.5      
Sep 17 03:53 Calm 16.09 Partly Cloudy SCT014 12 9     83%     1020 1020.3      
Sep 17 03:34 Calm 16.09 Partly Cloudy SCT014 12 9     80%     1020        
Sep 17 02:53 SSE 5 16.09 Mostly Cloudy BKN015 12 9     83%     1020 1020.5      
Sep 17 01:53 SSE 9 16.09 Mostly Cloudy BKN015 12 9     83%     1020 1020.4      
Sep 17 00:53 SSE 5 16.09 Mostly Clear FEW016 FEW090 11 8     86%     1019.7 1020.2      
Sep 16 23:53 S 8 16.09 Partly Cloudy SCT017 13 9     80%     1019.3 1019.8      
Sep 16 22:53 SW 9 16.09 Mostly Clear FEW025 FEW090 13 9     77%     1019 1019.6      
Sep 16 21:53 SW 15 16.09 Mostly Clear FEW025 FEW090 14 9     74%     1018.6 1019.1      
Sep 16 20:53 SSW 17 16.09 Mostly Clear FEW035 14 9     72%     1018 1018.5      
Sep 16 19:53 SSW 22 16.09 Partly Cloudy FEW045 SCT080 15 9     67%     1016.9 1017.5      
Sep 16 18:53 SSW 22 16.09 Mostly Clear FEW045 FEW080 16 9     62%     1016.3 1016.8      
Sep 16 17:53 SSW 26 16.09 Partly Cloudy FEW045 SCT070 17 9     58%     1015.9 1016.3      
Sep 16 16:53 SSW 24 16.09 Partly Cloudy FEW045 SCT070 18 9     58%     1015.2 1015.8     0
Sep 16 15:53 SW 24 16.09 Mostly Cloudy FEW045 SCT060 BKN085 18 9     58%     1014.9 1015.5      
Sep 16 14:53 SSW 22 16.09 Mostly Cloudy FEW047 SCT080 BKN150 17 9     60%     1014.6 1014.9 0    
Sep 16 13:53 S 24 16.09 Light Rain FEW015 SCT035 BKN080 17 9     62%     1014.2 1014.7 0 0  
Sep 16 12:53 S 22 16.09 Mostly Cloudy FEW015 SCT030 BKN095 16 9     62%     1013.6 1014.1      
Sep 16 11:53 SSW 28 16.09 Mostly Cloudy FEW015 SCT030 BKN070 17 11     67%     1013.2 1013.6      
Sep 16 10:53 S 24 16.09 Mostly Clear FEW015 FEW030 FEW070 14 10     75%     1012.5 1013.2 0   0
Sep 16 09:53 S 22 16.09 Light Rain FEW012 SCT030 BKN065 13 11     87%     1011.9 1012.6 0    
Sep 16 09:37 S 18 16.09 Light Rain FEW016 SCT028 BKN065 13 11     86%     1011.5   0    
Sep 16 08:53 S 13 16.09 Mostly Cloudy FEW016 BKN028 BKN035 13 11     86%     1011.2 1011.8      
Sep 16 08:37 SSE 21 16.09 Mostly Cloudy FEW017 BKN028 BKN035 13 10     83%     1011.2        
Sep 16 07:53 S 17 16.09 Mostly Cloudy FEW014 SCT035 BKN065 12 11     90%     1010.5 1011.2 0 0  
Sep 16 06:53 S 13 8.05 Light Rain and Fog/Mist FEW024 OVC031 13 11     86%     1009.8 1010.5 0    
Sep 16 05:53 SE 11 16.09 Cloudy FEW048 OVC060 13 11     84%     1009.2 1009.6 0    
Sep 16 04:53 SE 11 16.09 Light Rain BKN047 OVC060 13 11     84%     1009.5 1009.9 0   0
Sep 16 03:53 SSE 9 16.09 Light Rain SCT050 OVC060 13 11     84%     1009.8 1010.4 0    
Sep 16 02:53 SSE 15 16.09 Cloudy OVC060 14 11     81%     1010.2 1010.6      
Sep 16 01:53 SSE 8 16.09 Cloudy FEW045 BKN060 OVC080 13 11     84%     1010.5 1011 0 0  
Sep 16 00:53 SSE 21 16.09 Light Rain BKN035 OVC043 14 11     81%     1011.2 1011.6 0    
Sep 15 23:53 ESE 8 16.09 Cloudy SCT039 BKN048 OVC060 13 11     87%     1011.2 1011.7      
Sep 15 22:53 5 16.09 Cloudy FEW036 OVC044 13 11     87%     1011.5 1012     0
Sep 15 21:53 SSE 15 16.09 Cloudy FEW055 BKN070 OVC080 13 11     87%     1011.5 1012.3 0    
Sep 15 20:53 SSE 13 16.09 Cloudy BKN070 OVC085 14 12     87%     1011.9 1012.3 0    
Sep 15 19:53 SSE 11 16.09 Cloudy FEW060 BKN075 OVC090 14 11     81%     1011.5 1012.2   0  
Sep 15 18:53 SW 8 16.09 Cloudy FEW022 SCT070 OVC090 14 11     81%     1011.9 1012.3 0    
Sep 15 18:37 WSW 5 16.09 Cloudy FEW024 BKN060 OVC080 14 10     77%     1011.5   0    
Sep 15 18:07 W 15 14.48 Light Rain FEW013 BKN023 OVC085 14 11     81%     1011.9   0    
Sep 15 17:53 SSW 15 16.09 Cloudy SCT040 BKN070 OVC085 15 12     81%     1011.5 1012.1 0    
Sep 15 16:53 SSW 18 16.09 Cloudy FEW035 SCT060 OVC075 17 9     60%     1011.2 1011.7     0
Sep 15 15:53 SSW 15 16.09 Mostly Cloudy FEW020 BKN070 BKN100 17 11     65%     1011.2 1011.6 0    
Sep 15 14:53 SSW 13 16.09 Light Rain FEW020 SCT050 BKN100 17 11     67%     1011.2 1011.6 0    
Sep 15 13:53 SW 13 16.09 Mostly Cloudy FEW020 SCT050 BKN100 17 9     62%     1011.2 1011.7      
Sep 15 12:53 SW 11 16.09 Cloudy FEW010 BKN060 OVC070 16 9     64%     1011.2 1011.8      
Sep 15 11:53 S 13 16.09 Cloudy SCT050 BKN070 OVC085 16 9     64%     1011.5 1012.1      
Sep 15 10:53 SW 13 16.09 Cloudy SCT049 BKN070 OVC090 15 9     69%     1011.9 1012.3      
Sep 15 09:53 SSE 11 16.09 Cloudy BKN070 OVC100 14 9     70%     1011.5 1012.1      
Sep 15 08:53 SSE 13 16.09 Mostly Cloudy FEW050 BKN095 BKN180 13 9     75%     1011.5 1011.9      
Sep 15 07:53 SSE 9 16.09 Mostly Cloudy SCT060 BKN110 BKN170 12 9     83%     1011.5 1012.1      
Sep 15 06:53 SSE 8 16.09 Cloudy FEW030 SCT060 OVC110 12 9     86%     1011.9 1012.2      
Sep 15 05:53 SE 13 16.09 Mostly Cloudy FEW040 SCT060 BKN140 12 9     83%     1011.5 1012.1      
Sep 15 04:53 SE 11 16.09 Mostly Cloudy FEW040 BKN060 BKN140 12 10     86%     1011.9 1012.3      
Sep 15 03:53 SSE 5 16.09 Mostly Cloudy SCT080 BKN160 12 11     90%     1011.9 1012.4      
Sep 15 02:53 SSE 5 16.09 Mostly Cloudy FEW040 FEW080 BKN210 12 11     93%     1012.2 1012.8      
Sep 15 01:53 SE 9 16.09 Partly Cloudy FEW100 SCT240 13 11     89%     1012.5 1013      
Sep 15 00:53 SE 9 16.09 Partly Cloudy FEW050 SCT100 SCT240 13 11     84%     1012.9 1013.4      
Sep 14 23:53 SE 9 16.09 Partly Cloudy FEW050 SCT100 SCT240 14 11     81%     1013.6 1013.9      
Sep 14 22:53 S 9 16.09 Mostly Cloudy FEW050 BKN100 14 9     74%     1013.6 1014.1      
Sep 14 21:53 S 9 16.09 Cloudy SCT070 OVC110 15 9     69%     1013.9 1014.3      
Sep 14 20:53 S 11 16.09 Cloudy FEW044 SCT080 OVC110 15 9     69%     1013.9 1014.5      
Sep 14 19:53 SW 11 16.09 Cloudy BKN045 OVC120 16 8     60%     1013.6 1014.2      
Sep 14 18:53 W 15 16.09 Cloudy SCT020 SCT049 BKN085 OVC180 17 8     56%     1013.6 1014      
Sep 14 17:53 SW 9 16.09 Mostly Cloudy SCT020 SCT085 BKN180 18 9     54%     1013.6 1014      
Sep 14 16:53 SW 8 16.09 Mostly Cloudy SCT020 SCT080 BKN200 19 8     50%     1013.6 1014      
Sep 14 15:53 SW 11 16.09 Mostly Cloudy SCT020 SCT080 BKN200 19 9     52%     1013.9 1014.3      
Sep 14 14:53 9 16.09 Mostly Cloudy FEW020 FEW080 BKN200 19 10     56%     1014.2 1014.7      
Sep 14 13:53 W 9 16.09 Mostly Cloudy FEW020 FEW080 BKN200 18 11     63%     1014.9 1015.3      
Sep 14 12:53 SSW 13 16.09 Mostly Cloudy FEW011 FEW080 BKN180 17 11     65%     1014.9 1015.5      
Sep 14 11:53 WSW 11 16.09 Mostly Cloudy SCT011 SCT070 BKN160 16 11     75%     1015.6 1016      
Sep 14 11:46 SW 13 16.09 Mostly Cloudy SCT011 BKN060 BKN160 16 11     72%     1015.6        
May 15 00:53 WSW 9 16.09 Mostly Clear FEW250 17 11     65%     1012.2 1012.4      
May 14 14:53 NW 13 16.09 Mostly Clear FEW050 FEW250 29 13     37%   28 1012.5 1013      
May 14 05:53 SSW 5 16.09 Mostly Clear FEW250 15 11     78%     1014.6 1014.8      
May 13 17:53 N 8 16.09 Mostly Clear FEW250 29 8     27%   28 1012.5 1012.8      
May 13 01:53 NE 11 16.09 Clear CLR 16 8     62%     1014.9 1015.3      
May 12 18:53 NNE 21 16.09 Mostly Clear FEW030 23 9     41%   23 1015.2 1015.6      
May 12 17:53 N 21 16.09 Mostly Clear FEW030 24 9     39%   24 1015.6 1016.1      
May 12 13:53 NNE 18 16.09 Clear   22 11     48%   22 1018.3 1018.7      
Jun 12 03:53 SW 11 16.09 Partly Cloudy SCT011 11 9     89%     1015.9 1016.5      
Jun 11 13:53 WSW 11 16.09 Partly Cloudy FEW040 SCT170 18 9     54%     1016.6 1017.2      
Jun 11 02:53 S 8 16.09 Mostly Cloudy SCT080 BKN180 12 9     86%     1015.6 1016.1      
Jun 10 15:53 WNW 17 16.09 Partly Cloudy SCT045 SCT200 19 5     40%     1011.2 1011.6      
Jun 07 10:53 W 11 16.09 Mostly Cloudy FEW120 BKN250 19 9     51%     1008.5 1008.9      
Jun 06 05:53 NNE 9 16.09 Partly Cloudy SCT140 SCT250 13 6     62%     1016.3 1016.8      
Jun 05 21:53 N 13 16.09 Mostly Cloudy BKN250 17 6     50%     1018 1018.4